Hastings, NE

12:07 AM CST on February 07, 2016 (GMT -0600)
Hastings Municipal

Weather History for KHSI - December, 2011

Change the Weather History Date:

Sunday, December 25, 2011

  Actual Average Record
Temperature  
Mean Temperature 36 °F 26 °F  
Max Temperature 48 °F 35 °F 62 °F (1950)
Min Temperature 24 °F 16 °F -13 °F (1983)
Degree Days  
Heating Degree Days 29 39  
Month to date heating degree days 960 923  
Since 1 July heating degree days 2190 2204  
Cooling Degree Days 0 0  
Month to date cooling degree days 0 0  
Year to date cooling degree days 1119 1077  
Moisture  
Dew Point 22 °F    
Average Humidity 57    
Maximum Humidity 78    
Minimum Humidity 36    
Precipitation  
Precipitation 0.00 in 0.01 in 1.00 in (1945)
Month to date precipitation 0.97 0.53  
Year to date precipitation 27.08 27.03  
Snow  
Snow 0.00 in 0.20 in 9.20 in (2009)
Month to date snowfall 9.4 4.9  
Since 1 July snowfall 9.4 8.7  
Snow Depth 0.00 in    
Sea Level Pressure  
Sea Level Pressure 30.41 in    
Wind  
Wind Speed 6 mph (WNW)    
Max Wind Speed 15 mph    
Max Gust Speed 20 mph    
Visibility 10 miles    
Events      
T = Trace of Precipitation, MM = Missing Value Source: NWS Daily Summary

Daily Weather History Graph

Daily Weather History Graph

Search for Another Location

Airport or City:

Trip Planner

Search our weather history database for the weather conditions in past years. The results will help you decide how hot, cold, wet, or windy it might be!

Date:

Astronomy

Dec. 25, 2011 Rise Set
Actual Time 7:55 AM CST 5:11 PM CST
Civil Twilight 7:24 AM CST 5:42 PM CST
Nautical Twilight 6:50 AM CST 6:17 PM CST
Astronomical Twilight 6:16 AM CST 6:50 PM CST
Moon 8:34 AM CST (12/25) 6:34 PM CST (12/25)
Length of Visible Light 10h 18m
Length of Day
9h 16m
New Moon, 1% of the Moon is Illuminated
Dec 25
New Moon
Jan 1
First Quarter
Jan 9
Full
Jan 16
Last Quarter
Jan 23
New

Hourly Weather History & Observations

Time (CST) Temp. Windchill Dew Point Humidity Pressure Visibility Wind Dir Wind Speed Gust Speed Precip Events Conditions
12:53 AM 28.0 °F 21.7 °F 21.0 °F 75% 30.39 in 10.0 mi WNW 5.8 mph - N/A   Clear
1:53 AM 28.9 °F 23.9 °F 21.0 °F 72% 30.38 in 10.0 mi WNW 4.6 mph - N/A   Clear
2:53 AM 30.9 °F 22.2 °F 21.0 °F 67% 30.38 in 10.0 mi WNW 10.4 mph - N/A   Clear
3:53 AM 30.0 °F 21.7 °F 19.9 °F 66% 30.39 in 10.0 mi NW 9.2 mph - N/A   Clear
4:53 AM 28.0 °F 18.6 °F 19.9 °F 72% 30.40 in 10.0 mi WNW 10.4 mph - N/A   Clear
5:53 AM 27.0 °F 18.7 °F 19.9 °F 75% 30.42 in 10.0 mi WNW 8.1 mph - N/A   Clear
6:53 AM 28.0 °F 21.7 °F 19.0 °F 69% 30.44 in 10.0 mi West 5.8 mph - N/A   Clear
7:53 AM 26.1 °F 18.4 °F 19.0 °F 75% 30.47 in 10.0 mi NW 6.9 mph - N/A   Clear
8:53 AM 30.0 °F 22.4 °F 21.0 °F 69% 30.49 in 10.0 mi NW 8.1 mph - N/A   Clear
9:53 AM 36.0 °F 27.5 °F 24.1 °F 62% 30.51 in 10.0 mi NNW 12.7 mph - N/A   Clear
10:53 AM 39.9 °F 33.9 °F 25.0 °F 55% 30.52 in 10.0 mi North 9.2 mph - N/A   Clear
11:53 AM 42.1 °F 37.1 °F 25.0 °F 51% 30.50 in 10.0 mi NNE 8.1 mph - N/A   Clear
12:53 PM 45.0 °F 41.8 °F 24.1 °F 44% 30.48 in 10.0 mi NNE 5.8 mph - N/A   Clear
1:53 PM 46.9 °F - 21.9 °F 37% 30.44 in 10.0 mi Calm Calm - N/A   Clear
2:53 PM 48.0 °F - 23.0 °F 37% 30.42 in 10.0 mi Calm Calm - N/A   Clear
3:53 PM 46.9 °F - 23.0 °F 39% 30.42 in 10.0 mi Calm Calm - N/A   Clear
4:53 PM 42.8 °F 41.1 °F 24.8 °F 49% 30.37 in 10.0 mi SW 3.5 mph - N/A   Clear
5:53 PM 35.1 °F - 24.1 °F 64% 30.42 in 10.0 mi Calm Calm - N/A   Clear
6:53 PM 30.9 °F - 24.1 °F 76% 30.40 in 10.0 mi Calm Calm - N/A   Clear
7:53 PM 28.9 °F 25.2 °F 23.0 °F 78% 30.39 in 10.0 mi South 3.5 mph - N/A   Clear
8:53 PM 33.1 °F 28.7 °F 23.0 °F 66% 30.37 in 10.0 mi South 4.6 mph - N/A   Clear
9:53 PM 30.2 °F 23.4 °F 21.2 °F 69% 30.28 in 10.0 mi South 6.9 mph - N/A   Clear
10:53 PM 30.0 °F 24.1 °F 21.9 °F 72% 30.32 in 10.0 mi South 5.8 mph - N/A   Clear
11:53 PM 30.0 °F 23.2 °F 21.9 °F 72% 30.30 in 10.0 mi South 6.9 mph - N/A   Clear